Wind_Speed
47 47 47 47 47 48 48 48 48 49 50 50 51 52 53 53 54 55 55 56 57 58 59 59 59 59 58 56 54 53 52 51 50 51 51 52 53 54 55 57 59 61 63 65 66 67 67 68 68 67 65 64 63 62 60 59 58 58 57 57 56 55 54 52 50 47 45 44 45 45 44 44 44 43 42 41 40 39 38 37 37 37 36 36 35 34
47 47 47 47 47 48 48 48 48 48 49 49 50 51 51 52 53 54 55 56 57 58 59 59 60 60 60 59 58 57 56 56 56 57 57 57 56 56 57 58 60 62 63 65 66 66 66 66 66 65 65 63 62 61 59 58 57 56 55 55 54 54 53 51 49 47 46 46 45 45 44 44 44 43 43 42 41 40 39 38 37 37 37 37 36 36
47 47 48 47 47 48 48 48 48 48 49 49 49 49 50 50 51 53 54 55 56 57 58 58 59 59 59 60 60 59 59 60 60 60 59 57 56 55 55 57 59 61 62 63 64 64 64 64 64 64 63 63 61 60 58 57 55 54 53 52 52 51 51 50 49 48 48 47 47 46 44 43 43 43 43 42 42 41 39 39 38 38 37 37 37 37
49 49 49 49 49 49 50 50 50 49 49 49 49 49 49 50 50 51 52 53 54 55 55 56 56 57 57 58 58 59 59 59 60 59 58 56 54 53 54 55 57 59 60 61 61 61 61 62 62 62 62 62 61 60 58 57 55 54 52 51 50 49 50 50 50 49 49 49 48 47 45 44 43 43 43 43 42 42 41 40 39 38 38 38 38 37
53 53 53 52 52 52 53 53 53 53 53 53 53 53 53 53 53 53 54 54 55 55 55 56 56 56 57 57 57 58 58 59 58 58 56 55 54 53 54 55 56 57 58 59 60 60 61 61 62 62 62 62 62 61 60 58 57 55 53 51 49 49 49 49 50 50 50 50 49 49 47 46 45 44 44 43 43 43 42 41 40 39 39 38 38 38
56 55 55 55 54 54 54 54 55 55 56 56 57 57 57 57 57 57 57 57 58 58 59 59 59 59 59 59 59 58 58 59 58 58 57 56 55 55 55 55 56 57 58 59 60 61 61 62 62 63 63 63 63 63 62 61 60 58 56 53 51 50 50 50 50 50 50 50 50 50 49 48 47 46 45 44 44 44 44 43 42 41 40 39 39 39
57 57 56 55 55 55 55 55 55 55 55 56 57 57 57 57 57 57 57 58 58 59 59 60 60 60 60 59 59 58 58 58 58 58 57 57 57 56 56 57 57 58 59 60 60 61 62 62 63 63 63 63 63 63 62 62 61 60 59 57 55 53 52 51 51 50 51 51 51 52 52 51 50 48 46 46 46 46 45 45 44 43 41 41 40 40
58 58 58 57 56 56 55 55 55 55 55 55 55 55 55 55 55 55 55 56 56 57 57 58 58 58 58 58 57 57 57 57 57 56 56 56 56 56 56 56 57 58 59 59 60 61 62 62 62 62 61 61 61 61 61 61 61 61 60 58 57 56 55 53 52 52 52 52 53 54 54 53 52 50 49 48 47 47 47 46 45 44 43 42 42 41
58 59 59 58 58 57 57 57 57 56 56 56 56 55 55 55 55 55 55 55 56 56 56 57 57 57 57 57 56 56 57 56 56 56 55 55 55 55 55 56 57 57 58 59 59 60 60 60 60 60 59 59 58 58 58 58 58 59 59 58 58 57 57 56 55 54 53 54 55 56 56 56 54 53 51 49 49 48 48 47 47 46 45 44 44 43
57 58 58 59 59 59 59 59 59 58 58 57 57 57 57 57 57 57 56 56 57 57 57 58 58 58 58 58 57 57 57 57 57 57 57 56 56 56 57 57 57 58 58 59 59 59 59 59 58 58 58 57 57 57 57 57 57 57 57 58 58 58 58 57 57 56 56 56 57 58 58 58 57 55 53 52 50 50 49 48 48 48 47 46 46 45
58 58 59 59 60 60 60 60 61 60 60 60 60 60 59 59 59 59 59 59 59 59 58 59 59 59 59 59 59 58 58 58 58 58 58 58 58 58 58 59 59 59 60 60 60 60 59 59 59 58 58 57 57 57 57 57 57 57 57 58 58 59 59 59 59 59 59 59 60 60 60 59 58 57 56 54 53 51 51 50 49 49 48 48 47 47
60 60 60 61 61 61 62 62 62 62 62 62 62 61 61 62 62 62 61 61 61 61 60 60 60 60 60 60 60 59 59 59 59 59 59 59 59 59 59 60 60 60 61 61 61 61 60 60 60 60 59 59 59 59 58 58 58 59 59 59 60 60 61 61 61 62 62 62 62 62 62 61 60 59 58 56 55 53 52 51 51 50 49 49 49 48
61 62 62 62 63 63 63 63 63 63 63 63 63 63 63 63 63 63 63 63 63 63 63 63 62 62 61 61 60 60 60 60 59 59 59 59 59 59 59 60 60 60 61 61 61 61 61 61 61 61 61 60 60 60 60 60 60 60 61 61 62 62 62 63 63 63 64 64 64 63 63 62 61 60 59 58 56 55 54 53 52 51 51 50 50 50
62 63 63 63 63 64 64 64 64 64 64 64 63 63 64 64 64 64 64 64 64 64 64 64 63 63 62 61 61 60 60 60 60 60 59 59 59 59 59 59 60 60 60 60 60 60 61 61 61 61 61 61 61 61 61 61 61 62 62 62 63 63 63 64 64 64 64 65 64 64 63 62 62 61 60 59 57 56 55 54 53 52 51 51 50 50
63 63 63 64 64 64 64 64 64 64 64 64 64 63 63 63 63 63 63 63 63 64 63 63 63 63 62 61 61 61 60 60 60 60 60 60 60 59 59 59 60 60 60 59 59 60 60 60 60 60 60 60 60 61 61 61 62 62 62 63 63 63 64 64 64 64 64 65 64 64 63 63 62 61 60 59 58 57 56 54 54 53 52 51 51 51
64 64 64 64 64 64 64 64 63 63 63 63 63 63 62 62 62 62 62 62 62 62 62 62 63 63 63 62 61 60 59 60 60 61 61 61 61 61 60 60 60 60 60 59 59 59 59 59 59 59 59 59 60 60 60 61 61 62 62 62 62 63 63 63 63 64 64 64 64 63 63 62 62 61 60 59 58 57 56 55 54 53 52 52 51 51
64 64 64 64 64 64 64 63 63 62 62 62 62 62 62 61 61 61 61 61 61 61 62 62 62 62 63 62 61 60 59 59 60 61 62 61 62 62 61 60 60 60 60 59 59 59 58 58 58 58 58 59 59 59 60 60 61 61 61 61 62 62 62 62 62 63 63 63 63 63 63 62 61 61 60 59 58 57 56 55 54 53 52 52 51 51
64 64 64 64 63 63 63 62 62 61 61 61 61 61 61 61 61 60 60 61 61 61 62 62 62 62 62 61 61 61 60 59 60 62 62 62 62 62 61 61 60 61 60 60 59 59 59 58 58 58 58 59 59 59 60 60 60 60 61 61 61 61 61 61 61 62 62 62 62 62 62 62 61 60 60 59 58 57 56 56 55 54 53 52 51 51
64 63 63 62 62 62 62 61 60 60 60 60 60 60 60 60 60 60 60 60 61 61 61 61 62 63 62 61 62 62 61 60 61 62 63 63 63 63 62 60 60 60 60 60 59 59 59 59 59 59 59 59 59 59 59 60 60 60 60 60 60 60 60 60 61 61 61 61 61 61 61 61 61 60 60 59 58 57 57 56 55 54 53 53 52 51
63 62 62 61 61 61 60 60 59 58 58 58 59 59 59 59 59 59 60 60 60 60 61 61 61 62 62 62 62 62 62 61 61 62 64 64 64 63 62 61 60 60 60 60 60 59 59 59 59 59 59 59 59 59 59 60 60 60 60 60 60 60 60 60 60 60 61 61 61 61 61 61 61 60 60 59 58 58 57 56 55 55 54 53 53 52
61 61 61 60 59 58 59 58 58 57 57 57 57 57 58 58 58 58 59 59 59 59 60 60 60 61 61 60 60 61 61 60 61 62 64 65 64 64 63 61 61 61 61 61 60 60 59 59 59 59 59 59 59 59 59 60 60 60 60 60 60 60 60 60 60 60 60 60 61 61 61 61 60 60 60 59 59 58 57 56 56 55 55 54 53 53
59 59 59 58 57 56 56 56 55 55 55 54 54 55 56 56 56 57 57 57 57 57 58 58 59 59 59 59 58 59 59 59 60 61 63 64 64 64 63 61 60 60 61 61 61 60 59 59 59 59 59 59 59 59 60 60 60 60 60 60 60 60 60 60 60 60 60 60 60 60 60 60 60 60 60 60 59 59 58 57 56 56 55 54 54 53
56 56 56 55 54 54 53 53 52 52 52 51 51 51 52 52 52 53 54 54 54 54 55 56 56 57 57 56 56 56 56 56 58 59 61 61 62 63 62 59 58 59 59 59 59 59 58 58 58 58 58 58 58 59 59 59 60 60 60 60 60 60 60 60 60 60 60 60 60 60 60 60 60 60 60 60 60 60 59 58 57 56 56 55 55 55
52 52 52 51 51 50 49 49 48 48 48 47 47 48 48 49 49 50 50 50 50 51 52 53 53 54 55 55 54 54 54 54 55 56 58 60 61 61 60 58 57 57 58 58 57 56 57 57 57 56 56 56 57 57 58 58 59 59 59 59 59 59 59 59 59 60 60 60 60 60 60 60 60 60 61 61 61 61 60 59 58 58 57 56 56 56
48 48 48 47 47 46 46 45 45 45 45 45 45 46 46 47 47 48 48 48 48 49 49 50 51 52 53 53 53 54 55 55 54 54 55 57 59 60 59 57 56 56 57 57 56 55 55 56 56 55 54 54 55 55 56 56 57 57 57 57 57 57 58 58 58 59 59 60 60 60 60 60 60 61 61 61 61 61 61 60 60 59 58 58 57 57
44 44 44 43 43 43 43 43 43 43 43 43 43 44 44 45 46 47 47 47 47 47 47 47 48 50 50 50 51 52 53 52 51 51 52 53 55 56 57 55 53 53 55 56 55 54 55 56 56 55 54 53 53 53 53 53 54 54 54 54 54 55 55 56 57 57 58 59 59 59 60 60 60 61 61 61 62 62 61 61 61 60 60 59 59 59
41 41 41 40 40 40 41 41 41 41 41 41 41 42 42 43 43 44 45 45 45 44 44 45 46 47 48 48 48 49 49 48 47 47 47 48 50 52 53 51 50 50 52 53 53 53 53 54 55 55 54 54 53 52 51 51 51 50 50 50 51 51 52 53 54 55 56 57 58 59 59 59 60 60 61 61 62 62 62 61 61 61 61 61 61 60
37 38 38 38 38 39 39 39 39 39 39 39 39 39 40 40 41 42 43 43 42 41 42 43 44 44 44 45 45 45 44 43 43 44 44 44 46 48 49 47 46 46 48 49 50 50 50 51 52 52 52 51 51 50 49 49 48 47 47 47 47 47 49 50 51 53 54 55 56 57 58 59 59 60 61 61 61 61 61 61 61 61 61 62 62 62
34 35 35 35 36 36 36 36 36 36 36 36 36 36 37 37 38 39 41 40 39 39 41 41 41 41 41 42 43 42 41 40 41 41 40 41 43 45 46 43 42 42 44 45 46 46 46 47 47 47 47 47 47 46 46 46 45 44 44 44 44 44 46 47 49 50 52 53 54 56 57 58 59 59 60 61 61 61 61 61 61 61 62 62 63 63
31 31 32 32 32 32 32 33 33 33 33 33 33 34 34 35 35 36 37 37 37 37 39 39 39 39 39 40 40 40 39 39 38 38 38 38 41 43 43 40 39 39 41 41 42 43 44 43 42 41 41 42 42 41 41 41 41 40 40 40 41 42 43 45 46 48 49 51 52 53 55 56 57 58 59 59 60 60 60 60 61 61 62 63 63 63
29 29 29 29 29 29 29 30 30 30 30 30 31 31 32 32 33 34 34 35 35 36 37 38 38 38 38 38 39 40 40 39 38 37 36 37 40 41 41 39 37 37 38 38 39 40 42 42 39 37 36 37 37 37 36 36 36 36 36 37 38 40 41 42 44 45 47 48 49 51 52 53 54 56 57 58 58 59 59 59 60 61 62 63 64 64
27 27 27 27 27 27 28 28 28 29 29 29 29 30 30 31 32 32 33 33 33 34 35 36 37 37 37 38 38 40 40 39 38 37 36 37 39 40 40 38 37 37 38 37 37 38 40 41 39 36 33 33 34 34 33 32 32 33 33 34 35 37 38 39 41 43 45 46 47 48 49 50 51 52 54 55 56 57 57 58 59 60 61 62 63 64
27 27 27 27 27 27 28 28 28 28 28 29 29 29 30 30 31 31 31 32 32 33 34 35 36 36 37 38 38 39 40 40 39 38 37 37 39 40 40 38 37 37 38 38 37 37 38 40 39 37 34 32 32 33 32 31 31 31 32 32 33 35 36 37 38 40 42 43 44 45 46 47 48 49 50 52 53 54 55 56 57 58 59 61 62 64
28 28 28 28 28 28 28 28 28 28 29 29 29 29 29 29 30 30 30 31 31 32 32 33 34 35 36 38 39 39 39 39 38 37 36 37 38 39 39 37 37 37 38 38 38 38 38 38 38 37 36 34 33 32 32 32 31 31 31 32 32 33 34 34 35 37 39 40 41 42 43 45 46 47 48 49 50 51 53 54 55 57 58 59 61 63
29 29 29 29 28 28 28 28 28 28 28 28 28 28 28 28 29 29 29 29 30 30 31 32 32 34 35 36 37 38 37 36 35 34 34 35 36 37 37 37 36 36 37 38 38 38 38 37 37 37 37 36 35 33 32 32 32 32 31 31 32 32 33 33 33 34 36 38 39 40 41 42 44 45 46 47 48 50 51 52 54 55 57 58 60 61
29 29 28 28 28 28 27 27 27 26 27 27 26 26 27 27 27 27 27 28 28 29 29 30 31 32 33 34 35 35 35 34 32 32 32 33 34 35 36 36 35 35 35 36 37 37 37 36 36 36 36 36 36 34 33 31 31 31 32 32 31 31 31 31 32 33 34 35 36 37 39 40 41 43 45 46 47 48 50 51 53 54 56 57 58 60
28 28 27 27 27 27 27 26 26 25 25 25 25 25 25 25 26 26 26 26 26 27 27 28 29 30 30 31 32 33 33 32 31 31 30 31 32 33 34 35 34 33 33 34 35 35 35 35 35 35 35 35 35 34 33 32 31 31 32 31 31 30 30 31 31 31 32 33 34 34 35 37 39 41 43 44 46 47 49 51 52 53 55 56 57 58
28 27 27 27 27 27 26 26 25 25 25 25 24 24 24 24 25 25 25 25 25 25 26 27 27 28 28 29 30 30 31 31 30 30 29 30 30 31 32 33 33 32 31 32 33 33 34 34 34 35 34 34 33 33 33 32 32 31 31 31 31 30 30 31 31 31 31 32 32 33 33 34 36 38 40 42 44 46 47 49 51 52 53 54 55 57
28 27 27 27 26 26 26 26 25 25 25 25 24 24 24 24 24 24 24 24 24 24 25 25 26 26 26 26 27 28 28 28 29 29 29 29 29 30 31 32 32 31 30 30 31 32 33 33 34 34 34 33 33 32 32 32 32 32 31 31 31 31 30 30 30 31 31 31 32 32 32 32 33 35 37 39 41 43 45 47 48 49 50 51 53 54
28 28 27 26 26 26 26 25 25 25 25 24 24 24 24 24 24 24 23 23 23 24 24 24 25 25 24 24 25 25 26 26 27 27 27 27 28 29 30 31 31 31 31 31 31 32 32 33 33 33 33 33 33 33 32 32 31 31 31 31 31 30 29 29 29 30 31 31 31 32 32 32 33 34 35 37 38 40 42 44 45 46 47 48 50 51
28 27 26 26 25 25 25 25 25 25 25 24 24 24 24 25 25 24 24 23 23 24 24 24 24 24 24 23 23 23 24 24 24 25 25 26 26 27 28 29 30 30 31 31 31 32 32 33 33 34 34 34 34 34 33 32 31 31 31 31 31 29 28 27 27 28 28 29 29 30 30 31 31 32 33 35 36 38 39 41 42 43 44 46 47 49
27 26 26 25 25 24 24 24 24 24 24 24 24 25 25 25 26 25 25 24 24 24 24 25 25 25 24 23 23 23 23 23 23 23 24 24 25 26 27 28 28 29 30 31 31 32 32 32 33 33 33 33 34 34 34 32 31 30 30 30 30 29 27 26 24 24 25 25 26 26 27 27 28 29 30 32 34 35 37 38 40 41 42 43 44 46
26 26 25 25 24 24 24 24 24 24 24 24 24 25 25 26 26 26 26 25 25 25 25 25 26 26 25 24 23 23 22 22 23 23 23 24 24 25 26 27 27 28 29 29 30 30 30 30 31 31 31 31 32 33 33 31 30 29 28 28 28 28 27 24 22 21 22 23 22 22 23 23 24 25 27 29 31 33 35 36 38 40 41 42 42 43
26 25 25 24 24 24 24 24 24 24 24 24 24 25 25 25 26 26 26 26 25 25 26 26 26 26 26 25 24 23 22 21 21 22 22 23 24 25 25 26 27 27 28 28 28 28 28 28 28 28 29 29 30 30 30 29 28 28 27 26 26 27 26 24 22 21 21 21 20 20 20 20 21 23 25 27 29 31 33 34 36 38 39 40 41 42
26 25 25 24 24 24 24 25 25 25 25 25 25 25 25 25 25 25 26 26 26 26 26 27 27 26 26 25 24 23 22 20 20 20 20 21 22 23 24 25 25 26 26 27 27 28 28 28 28 28 28 29 30 30 30 29 29 28 27 26 26 26 26 25 23 22 22 21 20 20 19 20 21 22 24 26 27 29 31 33 35 36 38 39 40 41
26 25 25 25 25 25 25 25 25 25 25 25 25 25 24 24 24 24 25 25 25 25 25 26 26 26 25 24 24 23 21 20 19 18 18 19 20 21 22 23 24 25 25 26 27 28 29 30 30 30 30 31 31 31 30 30 30 30 29 28 28 28 28 27 26 25 24 23 22 21 20 20 22 23 25 26 27 28 30 31 33 35 36 37 39 40
26 26 26 25 25 26 26 26 26 26 26 25 25 24 24 24 23 23 23 23 24 24 24 25 25 24 24 23 23 22 21 19 18 17 17 18 19 20 21 22 23 24 26 27 28 29 31 31 32 33 33 33 33 33 32 31 31 31 30 29 29 29 29 29 28 27 27 26 25 23 22 22 23 25 26 27 28 29 30 30 32 33 34 36 37 39
27 27 26 26 26 26 26 26 26 26 26 25 24 23 23 23 22 22 22 22 22 23 23 23 23 22 22 21 21 21 20 19 18 17 17 17 18 20 21 22 24 25 27 28 29 31 32 33 34 34 35 35 35 34 33 32 31 31 30 30 30 30 30 30 29 28 28 27 26 25 24 24 25 26 27 28 29 29 30 30 31 31 33 34 36 37
27 27 27 27 27 27 27 26 26 26 26 25 24 22 22 21 21 21 21 21 21 22 22 21 21 21 20 20 20 20 20 20 19 18 18 18 19 20 22 23 25 27 28 30 31 33 33 34 34 34 34 34 34 34 34 32 32 31 31 30 30 31 31 30 29 29 28 28 27 26 25 25 26 27 28 29 30 30 30 29 30 30 31 32 33 35
27 27 27 27 27 27 27 26 26 26 25 24 23 22 21 20 20 20 20 20 20 21 21 21 20 20 20 19 19 20 20 20 20 20 20 21 22 23 25 26 28 30 31 32 33 34 34 35 34 34 34 33 33 32 32 32 31 31 31 31 31 31 31 31 30 30 29 28 27 26 25 26 26 27 29 30 30 30 30 29 29 29 29 30 31 32
27 27 27 27 27 27 26 26 26 26 25 24 23 22 21 20 20 20 20 20 20 20 20 20 20 20 20 20 20 20 20 21 21 22 22 23 25 26 28 29 31 32 33 33 34 34 34 34 34 33 32 31 31 31 31 31 31 31 31 31 31 31 31 31 31 30 29 28 27 26 26 26 26 27 29 30 30 30 30 30 29 29 28 28 29 30
Wind_Direction
281 280 279 279 278 278 277 277 276 274 274 272 271 270 270 269 268 266 264 262 260 258 258 258 257 256 255 252 251 251 251 252 253 255 258 262 264 265 264 263 263 264 265 267 268 268 268 268 268 268 268 267 266 265 264 263 263 264 265 265 265 264 263 261 259 259 259 261 263 264 265 265 265 265 265 264 263 261 260 259 258 258 258 257 256 253
279 279 278 278 277 276 276 275 274 272 271 270 269 268 268 267 266 265 264 263 261 259 258 257 256 256 256 255 255 256 257 259 262 264 267 270 271 271 270 269 268 267 267 267 268 268 268 268 268 268 268 267 266 265 264 263 263 264 264 264 264 263 262 260 258 258 258 260 262 263 264 264 265 265 264 263 262 261 260 258 257 257 256 256 254 253
277 277 276 276 275 274 273 272 271 270 269 269 268 267 266 265 265 264 263 263 261 260 259 258 258 257 257 257 258 260 261 263 266 268 270 272 273 272 271 270 269 269 268 268 268 268 268 268 268 268 267 267 266 265 264 264 264 264 264 264 263 262 260 259 258 257 258 259 261 263 264 265 265 265 264 264 263 262 260 259 257 256 255 254 253 252
276 275 275 274 273 273 272 271 270 269 268 268 267 267 266 265 265 264 264 263 263 262 262 261 261 261 261 261 262 264 265 267 269 270 272 272 273 272 271 270 270 269 269 269 268 268 268 268 267 267 267 267 266 266 265 265 264 264 263 263 262 261 260 259 258 258 259 259 261 263 265 266 266 265 265 264 263 262 261 259 258 256 254 253 252 251
277 277 276 276 275 274 274 273 273 272 271 270 270 269 269 268 268 267 266 265 265 265 264 264 264 265 265 265 266 267 268 269 270 271 271 271 271 271 270 269 269 269 269 269 268 268 268 268 268 268 268 267 267 267 266 266 265 263 262 261 261 260 260 260 260 261 261 261 262 263 265 266 267 266 264 263 263 262 261 260 258 256 254 253 252 250
279 278 277 277 276 276 276 276 276 275 275 275 274 274 274 273 273 272 271 270 269 269 268 268 268 269 269 269 270 270 271 271 271 271 271 271 270 270 269 269 268 268 268 268 268 268 268 268 268 268 268 269 269 268 268 267 266 264 262 260 259 259 260 261 262 263 263 263 264 264 266 267 267 266 264 262 261 261 261 260 259 257 255 253 252 250
279 279 278 278 277 277 277 277 277 277 277 277 277 276 276 276 276 275 275 274 273 273 272 272 272 273 273 273 273 273 273 273 272 272 272 272 271 271 270 270 269 269 268 268 268 268 268 269 269 269 270 270 270 270 269 269 267 265 263 260 259 259 259 261 262 264 265 265 265 266 266 267 267 265 263 262 260 260 259 259 258 257 255 253 252 250
280 280 280 279 279 278 278 278 278 278 277 277 277 277 276 276 276 275 275 275 274 274 274 274 274 274 274 274 274 274 273 273 273 273 273 272 272 272 271 271 270 270 270 270 270 270 270 270 271 271 271 272 271 271 270 270 269 267 265 263 261 260 259 260 261 263 265 266 267 267 267 267 267 265 264 262 260 259 258 258 257 256 255 254 252 250
281 281 281 281 281 280 280 279 279 278 278 278 278 277 276 276 275 274 274 274 274 274 274 273 273 273 273 273 273 273 273 273 273 272 272 272 272 271 271 271 271 271 271 271 271 271 271 272 272 272 272 272 272 272 271 271 270 268 267 266 265 264 263 262 262 263 264 266 267 268 268 267 267 266 264 262 260 259 257 257 256 255 254 253 252 250
283 282 282 282 281 281 281 281 280 280 280 280 279 279 278 278 277 276 275 274 274 274 274 274 274 273 273 273 273 273 274 274 274 273 273 273 272 272 271 271 271 271 271 271 272 272 272 272 273 273 273 272 272 272 271 271 270 269 268 268 268 268 267 266 265 265 266 267 268 268 268 268 267 266 265 263 261 259 258 257 256 255 254 253 251 250
283 283 283 282 282 282 282 282 282 282 282 282 281 281 281 281 280 279 278 277 276 275 275 275 275 275 275 275 275 274 275 275 275 275 274 274 274 274 273 273 272 272 272 272 272 272 273 273 273 272 272 272 272 271 271 270 270 269 268 268 268 269 269 268 268 268 267 268 268 268 268 268 267 267 266 264 263 261 259 258 256 255 253 252 251 250
284 284 283 283 283 283 283 283 283 283 283 283 283 283 283 283 283 282 282 281 280 279 279 278 278 277 277 277 277 276 276 275 275 275 275 275 275 274 274 274 273 273 273 273 273 273 273 273 273 272 272 271 271 271 270 270 269 269 268 268 268 268 268 268 268 268 268 268 268 268 268 268 267 267 266 265 264 262 261 259 257 256 254 252 251 249
284 284 284 283 283 283 283 283 283 284 284 284 284 284 284 284 284 284 283 283 283 282 282 281 280 280 279 279 279 278 277 277 276 275 275 275 274 274 274 274 273 273 273 273 273 273 273 273 273 272 272 272 271 271 270 270 269 269 268 268 268 268 268 268 268 268 268 268 268 268 268 268 268 267 267 266 265 264 262 260 259 257 255 253 251 250
284 283 283 283 284 284 284 284 284 284 285 285 285 285 284 284 284 284 284 284 284 284 284 283 283 282 281 281 280 280 279 278 278 277 276 275 274 274 273 273 273 273 273 273 273 273 273 273 273 273 272 272 272 271 271 270 270 269 269 268 268 268 268 268 268 268 268 268 268 268 268 268 268 267 267 266 265 264 263 261 260 258 256 254 252 250
283 283 283 283 284 284 284 285 285 285 285 285 285 285 285 285 285 285 285 285 284 284 284 284 284 283 283 282 282 282 281 280 280 279 278 276 275 275 274 273 273 272 272 272 272 272 273 273 273 273 273 273 272 272 271 271 270 269 269 268 268 268 268 268 268 268 268 268 268 268 268 268 267 267 267 266 265 264 263 262 260 259 257 255 253 251
284 284 284 284 284 285 285 285 285 285 286 286 286 286 286 285 285 285 285 285 284 284 284 284 283 283 283 283 282 282 282 281 281 280 279 278 277 276 275 274 274 273 273 272 272 272 272 272 272 272 272 272 272 271 271 271 270 270 269 269 269 268 268 268 268 268 268 268 268 268 268 267 267 267 266 266 265 264 263 262 260 259 257 255 253 251
285 286 286 286 286 286 286 286 286 286 287 287 287 286 286 286 286 285 285 285 284 284 284 283 283 283 282 282 282 282 281 281 280 279 279 278 278 277 276 276 275 275 274 273 273 273 272 272 272 271 271 271 271 271 270 270 270 270 270 269 269 269 268 268 268 268 268 268 267 267 267 267 267 266 265 265 264 263 263 261 260 259 257 255 253 251
288 288 288 288 288 288 288 288 288 288 288 288 287 287 287 286 286 286 286 285 285 284 284 283 283 283 283 282 282 281 281 280 279 279 278 278 277 277 277 276 276 276 275 275 274 273 273 272 271 271 270 270 270 270 270 269 269 269 269 269 269 268 268 268 267 267 267 267 267 267 266 266 266 265 265 264 263 263 262 261 260 258 257 255 253 251
289 289 290 290 289 289 289 289 289 289 289 288 288 287 287 287 286 286 286 285 285 285 284 283 283 283 283 282 282 281 280 279 279 278 278 277 277 276 276 276 276 275 275 275 274 273 273 272 271 270 270 270 269 269 269 269 269 268 268 268 268 268 267 267 267 267 266 266 266 266 265 265 265 265 264 263 263 262 261 260 259 258 257 255 253 251
291 291 291 291 290 290 290 290 290 290 290 289 288 288 287 286 286 286 285 285 285 284 284 283 283 283 282 282 281 280 280 279 279 278 278 277 276 276 276 275 275 274 274 273 273 272 271 271 270 270 269 269 269 268 268 268 268 267 267 267 267 267 267 266 266 266 265 265 265 265 265 264 264 264 264 263 262 261 260 259 258 257 256 255 253 252
292 291 291 291 291 291 290 290 290 289 288 288 287 287 286 286 285 285 284 284 283 283 283 282 282 281 281 280 280 280 280 279 279 278 277 276 276 276 275 275 274 274 273 272 272 271 270 269 269 268 268 268 267 267 267 267 267 267 266 266 266 266 265 265 265 265 265 264 264 264 264 264 263 263 263 262 262 261 260 259 257 256 255 254 253 252
291 291 291 290 290 290 289 289 288 287 286 286 286 285 284 284 283 283 282 282 281 281 281 280 280 279 279 279 279 279 278 278 277 276 276 276 276 276 275 274 274 273 273 272 271 271 270 269 268 267 267 266 266 265 265 265 265 265 265 265 265 265 265 264 264 264 264 263 263 263 263 262 262 262 262 261 261 260 259 258 257 256 255 253 252 251
290 289 289 289 289 288 288 287 286 286 285 284 283 282 282 281 281 281 281 280 280 279 279 279 278 279 278 278 278 277 277 276 276 275 276 276 276 276 275 274 274 273 272 272 271 270 269 268 268 267 266 265 264 264 263 263 263 263 263 263 263 263 263 263 263 263 262 262 262 262 261 261 261 261 260 260 260 259 259 258 257 255 254 252 251 250
288 288 288 288 288 287 287 286 285 285 284 283 282 282 281 280 280 280 279 279 279 279 279 279 279 279 279 278 277 277 276 276 276 277 278 278 278 278 278 277 276 274 273 272 272 271 269 268 267 266 265 265 264 263 263 262 262 261 261 261 261 261 261 261 261 261 261 261 260 260 260 259 259 259 259 258 258 258 258 257 256 255 253 252 250 249
287 288 288 288 288 287 287 286 285 285 285 284 283 283 282 282 282 281 281 281 280 280 280 280 281 281 281 281 280 280 280 280 281 282 282 283 283 282 281 281 281 279 277 275 274 273 271 270 268 267 266 264 264 263 262 262 261 261 260 260 260 259 259 259 259 259 259 259 258 258 258 257 257 257 257 256 256 256 256 256 255 254 253 251 250 249
289 289 289 289 288 287 287 286 286 286 286 286 286 286 286 285 285 285 285 284 284 284 284 284 284 283 283 283 284 284 284 285 286 287 287 287 286 285 284 285 285 283 281 280 279 278 275 273 272 270 268 266 265 264 263 262 262 261 261 260 259 258 258 257 257 257 257 257 257 256 256 255 255 255 255 254 254 254 254 254 254 253 252 251 250 249
291 290 290 289 289 288 287 287 287 287 287 287 288 288 288 288 288 288 287 287 287 287 287 286 286 285 285 285 285 285 286 287 288 288 288 288 287 286 285 286 287 285 284 283 282 281 279 277 275 274 272 270 268 266 265 264 263 262 261 260 259 258 257 256 256 255 255 255 255 254 254 254 253 253 253 253 253 252 252 252 252 252 251 251 250 249
292 291 290 290 289 289 289 289 289 289 289 289 290 289 289 289 289 289 288 288 289 290 289 287 286 286 287 287 286 286 287 288 288 287 287 288 287 286 285 286 286 286 284 283 283 282 281 280 279 278 277 275 273 271 269 267 265 263 262 261 259 258 257 256 255 254 254 254 253 253 253 253 252 252 252 251 251 251 251 251 250 250 250 250 249 249
292 292 292 291 291 291 292 292 292 292 292 291 291 290 290 290 290 290 289 290 291 291 289 288 288 289 289 288 288 287 288 287 286 286 287 288 287 286 285 287 287 286 285 284 284 284 283 281 281 280 280 279 277 275 273 271 268 266 263 261 259 257 255 254 254 253 253 253 252 252 252 252 252 251 251 251 251 250 250 249 249 249 249 248 248 248
294 294 294 294 294 295 295 295 294 294 293 293 292 291 291 291 291 290 290 291 292 292 290 290 291 291 291 291 291 290 289 288 288 289 290 290 287 286 286 289 289 288 287 288 288 287 285 283 282 283 282 281 280 279 277 274 272 269 266 262 259 256 255 253 253 252 252 252 251 251 251 252 251 251 251 251 251 250 250 249 249 248 248 248 247 247
300 300 299 299 299 298 298 297 296 295 295 294 292 292 291 291 290 290 290 290 291 291 291 291 291 291 291 292 292 292 291 291 291 291 291 290 289 288 289 291 292 291 290 291 291 290 288 287 286 286 284 283 283 281 280 277 275 272 269 265 261 258 256 254 253 252 251 251 251 251 251 251 251 251 251 251 251 250 250 249 249 248 248 248 247 247
307 307 305 304 303 302 300 299 298 297 296 295 293 293 292 291 290 290 289 289 289 289 289 289 289 289 290 290 290 290 291 291 291 291 292 292 291 290 291 293 293 293 292 291 291 291 290 291 291 290 288 286 284 283 281 279 276 273 271 268 264 261 258 257 255 254 253 252 251 251 251 251 251 251 251 251 251 251 250 249 249 248 248 248 247 247
312 311 309 308 306 304 302 301 300 299 297 296 295 294 293 292 291 290 289 289 288 288 287 287 287 288 288 287 287 288 289 289 291 292 294 294 293 292 292 293 293 292 291 291 290 290 289 290 291 292 290 287 284 283 282 279 276 274 272 270 267 264 262 260 259 257 255 254 253 252 252 252 251 251 251 251 251 251 250 249 249 248 248 248 248 247
313 311 310 309 307 305 304 303 301 300 299 298 297 296 295 293 292 291 291 290 289 288 287 287 287 287 287 287 287 287 289 291 293 295 296 295 293 292 293 293 292 290 290 290 290 289 288 288 290 290 290 287 284 282 281 279 277 275 273 272 270 268 266 264 262 260 258 257 256 254 253 252 251 251 251 251 251 250 250 249 249 248 248 248 247 247
312 311 310 309 307 306 305 304 303 302 301 300 299 298 297 295 294 293 292 292 291 290 288 288 287 287 287 288 288 289 291 293 295 297 296 295 294 294 294 292 291 291 291 290 290 289 289 288 288 289 289 287 285 282 281 280 280 279 276 274 272 270 268 267 265 263 261 260 258 256 254 252 251 251 250 250 250 249 249 249 248 248 247 247 247 247
311 311 310 309 308 307 306 305 304 304 303 302 301 300 298 297 296 295 294 293 293 292 291 290 289 289 289 290 291 292 294 296 297 298 297 296 296 295 295 294 293 293 293 292 291 291 290 290 289 288 287 286 285 284 283 283 282 280 278 276 273 271 270 269 267 265 263 261 259 257 255 253 252 251 250 249 249 249 249 249 248 248 248 248 248 247
312 312 311 310 309 308 308 308 307 306 305 304 303 302 301 299 298 297 297 296 295 294 294 293 293 292 292 293 294 296 298 299 300 300 299 298 297 297 296 295 295 295 294 293 293 293 292 291 289 288 287 286 287 287 287 286 283 280 278 277 276 274 272 270 268 266 264 263 261 259 256 254 253 251 250 250 250 249 249 249 249 249 249 249 248 248
314 314 314 313 312 311 311 311 310 309 308 307 306 305 303 302 301 300 300 299 299 298 297 297 296 296 297 297 299 300 301 302 303 302 301 300 299 298 297 297 297 297 296 295 294 294 293 292 291 290 290 289 288 288 288 288 285 282 280 279 278 276 273 271 270 268 267 265 263 260 258 256 254 252 251 251 251 251 251 251 251 250 250 250 250 250
317 317 317 316 316 315 315 314 313 312 311 310 309 308 306 305 304 304 304 303 303 302 302 301 300 300 300 301 302 303 303 303 303 303 302 301 300 299 298 298 298 298 298 296 295 294 294 293 293 293 293 292 291 290 289 289 287 286 284 282 280 277 275 274 273 271 269 267 265 263 260 258 255 254 253 252 252 252 252 252 252 252 252 252 252 251
319 319 319 319 319 318 317 317 316 315 314 313 312 311 310 309 308 307 307 307 307 306 305 303 302 302 302 302 303 303 302 302 302 301 301 300 300 299 298 298 299 299 299 298 296 295 295 295 295 295 295 295 295 294 293 291 290 289 288 286 283 281 279 278 275 273 271 269 268 266 264 261 258 256 254 253 253 252 252 252 252 252 252 252 252 252
320 320 320 321 320 320 319 318 318 317 316 316 315 314 313 312 312 311 311 310 309 308 307 305 304 303 303 303 303 302 301 301 300 299 299 299 298 298 297 297 298 298 298 298 297 296 296 297 297 297 297 297 297 296 295 294 293 292 291 290 288 287 286 282 279 276 274 272 270 268 266 264 261 259 257 256 254 253 252 252 252 252 252 252 252 252
321 321 322 322 321 320 320 319 318 318 317 317 317 316 315 315 314 314 314 313 312 310 308 306 305 304 304 304 304 303 302 301 301 300 299 298 297 296 296 295 296 296 296 296 296 297 297 298 298 298 298 299 298 297 297 296 296 295 294 293 293 292 290 286 284 282 279 276 273 270 268 266 265 263 261 259 257 255 253 252 252 251 251 250 250 251
322 322 322 322 321 320 320 318 318 317 316 316 316 316 316 315 315 315 314 314 312 310 308 306 305 305 305 305 305 304 304 303 302 302 301 299 298 297 295 295 295 294 295 295 296 297 298 298 298 299 300 300 299 298 298 299 299 299 298 297 296 295 292 291 289 286 282 279 276 273 271 270 269 267 265 262 259 257 255 253 251 250 250 249 249 249
322 321 321 320 319 319 318 317 316 315 315 315 315 315 315 315 314 314 314 313 312 310 308 307 306 306 306 307 307 306 305 304 304 303 302 301 299 298 297 296 296 296 296 296 297 298 299 299 299 300 300 299 298 297 298 300 300 300 300 299 297 295 294 293 292 288 283 281 279 277 275 274 272 269 266 263 260 258 256 254 252 250 249 248 248 248
319 319 318 317 317 316 315 315 315 314 314 314 314 314 314 314 314 314 314 313 312 311 310 309 308 308 309 309 309 308 306 305 304 302 301 299 298 297 296 296 296 296 297 297 298 299 299 299 299 299 298 297 296 296 297 298 298 298 298 297 296 294 292 291 289 287 284 282 281 279 277 275 273 269 265 262 260 259 257 255 253 251 249 248 247 246
317 316 315 315 315 315 315 315 314 314 314 314 314 314 314 314 314 314 313 313 312 311 311 310 310 311 311 310 310 308 307 305 304 302 299 297 295 294 293 293 294 295 295 296 297 298 298 298 298 297 296 294 293 293 294 295 295 295 294 294 293 292 290 289 287 286 285 283 281 278 276 274 270 267 265 263 261 259 258 256 254 252 250 248 247 246
315 315 315 315 315 315 315 315 315 314 314 314 313 313 313 313 313 313 313 313 312 312 312 312 312 311 311 311 310 309 308 306 305 303 300 297 294 292 291 291 292 292 293 293 294 295 295 296 296 295 294 293 292 292 292 292 292 292 292 292 291 290 288 288 287 287 286 283 281 278 275 271 268 265 264 263 262 260 258 257 255 253 251 249 247 246
317 316 316 316 316 316 316 316 315 315 315 314 313 313 313 314 314 314 314 313 313 313 313 313 312 311 311 311 310 309 308 308 307 305 303 299 296 294 292 291 291 290 290 290 291 291 292 292 292 292 292 292 291 291 291 291 291 291 291 290 289 288 287 287 286 286 285 283 281 278 274 269 266 264 263 262 261 260 259 257 256 254 252 251 249 247
318 318 318 318 318 317 317 317 316 316 315 315 314 314 314 314 315 315 315 315 314 314 313 313 312 311 310 310 310 309 308 308 308 307 305 303 300 298 296 294 293 292 291 290 290 290 290 290 290 289 289 289 289 290 291 291 291 291 291 290 290 289 288 287 286 285 284 282 280 276 272 267 263 261 261 260 260 260 259 258 256 255 253 252 251 250
320 320 320 320 319 319 318 318 317 317 316 316 315 315 315 315 316 316 316 316 315 315 314 313 312 311 311 311 310 309 309 308 308 308 308 306 304 303 301 299 297 295 294 293 291 290 290 289 288 288 288 288 289 289 290 291 291 291 290 290 289 289 288 287 286 284 283 281 279 275 270 265 261 259 258 258 259 259 259 257 256 254 253 252 252 251
321 322 321 321 320 320 319 319 319 318 318 318 317 317 317 317 317 317 317 317 316 315 314 313 313 312 312 311 311 310 310 310 310 310 310 310 309 308 306 303 301 299 297 295 294 292 291 290 289 288 288 289 289 290 290 290 290 289 288 288 288 287 287 286 284 283 282 280 278 274 269 264 260 258 257 257 258 258 258 256 254 252 251 250 250 250
Height
3016 3016 3016 3015 3015 3015 3014 3014 3014 3014 3013 3013 3013 3013 3012 3012 3012 3012 3012 3012 3011 3011 3010 3010 3010 3010 3009 3009 3008 3007 3007 3006 3005 3005 3004 3003 3002 3001 3001 3000 3000 3001 3002 3003 3003 3003 3003 3003 3003 3003 3003 3004 3004 3004 3004 3004 3005 3005 3006 3006 3007 3007 3008 3008 3009 3009 3010 3011 3011 3012 3012 3013 3013 3014 3015 3015 3016 3016 3017 3017 3017 3018 3018 3019 3019 3020
3013 3012 3012 3012 3012 3011 3010 3010 3010 3010 3009 3009 3009 3009 3008 3008 3008 3007 3007 3007 3007 3006 3006 3006 3005 3005 3005 3005 3004 3004 3003 3002 3002 3001 3000 3000 2999 2999 2998 2997 2997 2997 2998 2998 2998 2998 2998 2998 2999 2999 2999 2999 3000 3000 3000 3000 3000 3001 3001 3002 3003 3003 3004 3004 3005 3005 3006 3007 3007 3008 3008 3009 3010 3010 3011 3011 3012 3012 3013 3014 3014 3015 3015 3015 3016 3017
3010 3009 3008 3008 3008 3008 3006 3006 3006 3006 3005 3005 3005 3005 3004 3004 3003 3003 3003 3003 3002 3001 3001 3001 3000 3000 3000 2999 2999 2999 2998 2997 2997 2996 2996 2995 2995 2994 2994 2994 2993 2993 2993 2993 2994 2994 2994 2994 2994 2994 2995 2995 2995 2995 2995 2995 2996 2996 2997 2998 2999 2999 3000 3000 3000 3001 3002 3002 3003 3004 3005 3005 3006 3006 3007 3007 3008 3009 3009 3010 3010 3011 3012 3012 3013 3014
3007 3005 3005 3005 3005 3004 3003 3002 3002 3002 3001 3001 3000 3000 3000 3000 2999 2999 2999 2998 2998 2997 2997 2996 2995 2995 2995 2994 2994 2994 2993 2992 2992 2991 2991 2990 2990 2990 2990 2990 2990 2990 2990 2990 2990 2990 2990 2990 2990 2990 2990 2990 2990 2991 2991 2991 2991 2992 2993 2994 2995 2995 2995 2996 2996 2996 2997 2998 2999 3000 3000 3001 3002 3002 3003 3004 3004 3005 3005 3006 3007 3008 3008 3009 3010 3010
3003 3002 3001 3001 3000 3000 2999 2998 2998 2997 2997 2996 2996 2995 2995 2995 2995 2995 2994 2994 2993 2993 2992 2991 2991 2990 2990 2990 2989 2989 2989 2988 2988 2987 2987 2986 2986 2986 2986 2986 2986 2986 2986 2986 2985 2985 2985 2985 2985 2985 2986 2986 2986 2986 2986 2986 2987 2987 2988 2989 2990 2990 2991 2992 2992 2992 2993 2993 2994 2995 2996 2997 2998 2999 2999 3000 3000 3000 3001 3002 3003 3004 3005 3005 3006 3007
2999 2998 2997 2997 2996 2995 2995 2995 2994 2993 2992 2991 2991 2991 2991 2990 2990 2990 2989 2989 2988 2988 2987 2986 2986 2986 2985 2985 2984 2984 2984 2984 2983 2983 2983 2982 2982 2982 2982 2982 2981 2981 2981 2981 2981 2981 2981 2981 2981 2981 2981 2981 2982 2982 2982 2982 2982 2982 2983 2984 2984 2985 2986 2987 2987 2988 2988 2989 2990 2990 2991 2992 2993 2994 2995 2995 2996 2996 2997 2998 2999 3000 3001 3002 3003 3004
2994 2993 2993 2992 2991 2991 2991 2990 2990 2989 2988 2987 2986 2986 2986 2985 2985 2985 2984 2984 2983 2983 2982 2982 2981 2981 2980 2980 2980 2979 2979 2979 2979 2978 2978 2978 2977 2977 2977 2977 2977 2977 2977 2976 2976 2976 2976 2976 2976 2976 2976 2977 2977 2977 2977 2977 2977 2978 2978 2978 2979 2979 2980 2981 2982 2983 2983 2984 2985 2986 2987 2988 2989 2990 2990 2991 2992 2992 2993 2994 2995 2996 2997 2998 2999 3000
2989 2988 2988 2988 2987 2986 2986 2985 2985 2984 2983 2982 2981 2981 2981 2980 2980 2980 2979 2979 2978 2978 2977 2977 2977 2977 2976 2976 2975 2975 2975 2974 2974 2974 2974 2973 2973 2973 2972 2972 2972 2972 2972 2971 2971 2971 2971 2971 2971 2971 2972 2972 2972 2972 2972 2972 2973 2973 2973 2973 2973 2974 2975 2975 2976 2977 2978 2979 2980 2981 2982 2983 2984 2985 2986 2987 2988 2988 2989 2990 2991 2992 2993 2994 2995 2996
2985 2983 2983 2982 2982 2981 2980 2980 2980 2979 2979 2977 2976 2975 2975 2975 2975 2975 2975 2974 2974 2973 2973 2972 2972 2972 2972 2971 2971 2970 2970 2970 2970 2970 2969 2969 2969 2969 2968 2968 2968 2967 2967 2967 2966 2966 2966 2966 2966 2966 2967 2967 2967 2967 2967 2968 2968 2969 2969 2969 2969 2969 2970 2970 2971 2972 2973 2974 2975 2975 2976 2977 2979 2980 2981 2982 2983 2984 2985 2986 2987 2988 2988 2990 2990 2992
2980 2979 2978 2977 2976 2975 2975 2974 2973 2973 2973 2972 2971 2970 2970 2970 2969 2969 2970 2970 2969 2969 2968 2967 2966 2966 2966 2966 2966 2965 2965 2965 2965 2965 2964 2964 2964 2964 2964 2963 2963 2962 2962 2962 2961 2961 2961 2961 2961 2961 2961 2962 2962 2962 2963 2963 2964 2964 2964 2965 2965 2965 2965 2966 2966 2967 2968 2969 2970 2970 2971 2972 2973 2974 2976 2977 2978 2980 2980 2981 2982 2983 2984 2985 2986 2987
2975 2974 2973 2972 2970 2970 2970 2968 2967 2967 2967 2967 2965 2965 2964 2964 2963 2963 2963 2963 2963 2963 2963 2962 2961 2961 2960 2961 2961 2961 2960 2960 2959 2959 2959 2959 2958 2958 2958 2958 2958 2957 2957 2956 2956 2956 2956 2956 2956 2956 2956 2957 2957 2957 2958 2958 2959 2959 2959 2960 2960 2960 2960 2961 2961 2962 2963 2963 2964 2965 2966 2967 2968 2969 2970 2972 2973 2974 2975 2976 2977 2978 2980 2980 2981 2982
2970 2969 2968 2967 2965 2965 2964 2963 2962 2961 2961 2961 2960 2960 2959 2958 2957 2956 2955 2955 2956 2957 2957 2956 2956 2955 2955 2955 2955 2955 2955 2955 2954 2954 2954 2954 2953 2953 2952 2952 2952 2951 2951 2951 2950 2950 2951 2950 2950 2951 2951 2951 2952 2952 2953 2953 2954 2954 2954 2954 2955 2955 2955 2955 2956 2957 2957 2958 2959 2960 2960 2961 2962 2963 2965 2966 2967 2969 2970 2971 2972 2974 2975 2975 2977 2978
2965 2964 2962 2961 2960 2960 2959 2958 2957 2957 2956 2956 2955 2955 2954 2953 2952 2951 2950 2949 2949 2949 2949 2949 2949 2949 2950 2949 2948 2948 2948 2948 2948 2948 2948 2948 2948 2948 2947 2946 2946 2946 2945 2945 2945 2945 2945 2945 2945 2945 2946 2946 2946 2947 2947 2948 2948 2948 2949 2949 2949 2949 2950 2950 2950 2951 2952 2952 2953 2954 2955 2956 2957 2958 2959 2960 2961 2963 2964 2966 2967 2968 2969 2970 2972 2973
2960 2959 2957 2956 2955 2955 2954 2953 2952 2952 2951 2951 2950 2950 2948 2947 2947 2946 2945 2944 2943 2943 2942 2942 2941 2942 2943 2943 2942 2942 2941 2941 2941 2942 2942 2942 2942 2942 2941 2941 2940 2940 2940 2940 2940 2940 2940 2940 2940 2940 2940 2941 2941 2941 2941 2942 2942 2942 2942 2943 2943 2943 2944 2944 2945 2945 2946 2947 2947 2948 2949 2950 2951 2952 2953 2954 2955 2957 2958 2960 2961 2962 2964 2965 2966 2968
2955 2954 2953 2952 2951 2951 2950 2949 2948 2947 2946 2946 2945 2944 2943 2942 2941 2941 2940 2939 2938 2937 2937 2936 2935 2935 2936 2936 2936 2935 2935 2935 2934 2934 2935 2935 2935 2935 2935 2935 2935 2935 2935 2935 2935 2935 2936 2935 2935 2935 2935 2935 2935 2935 2935 2935 2935 2936 2936 2936 2937 2938 2938 2939 2939 2940 2940 2941 2942 2942 2943 2944 2945 2946 2947 2948 2950 2951 2952 2954 2955 2956 2958 2959 2961 2962
2950 2949 2948 2947 2947 2946 2945 2945 2944 2943 2942 2941 2940 2939 2938 2937 2936 2935 2935 2934 2932 2932 2931 2930 2930 2930 2930 2930 2930 2930 2929 2928 2927 2927 2928 2928 2928 2929 2929 2929 2929 2929 2930 2931 2931 2931 2931 2931 2930 2930 2930 2930 2930 2929 2929 2929 2929 2930 2930 2930 2931 2932 2932 2933 2934 2934 2935 2935 2936 2937 2937 2938 2939 2940 2941 2942 2943 2945 2946 2947 2949 2950 2952 2953 2955 2956
2945 2944 2943 2943 2942 2942 2941 2940 2939 2938 2937 2936 2935 2934 2933 2932 2931 2930 2930 2928 2927 2926 2926 2925 2924 2924 2924 2925 2925 2925 2924 2923 2921 2920 2921 2921 2921 2922 2922 2922 2922 2922 2924 2925 2926 2925 2926 2926 2925 2925 2925 2925 2924 2924 2923 2923 2923 2924 2924 2925 2925 2926 2926 2927 2928 2928 2929 2930 2930 2931 2931 2932 2933 2934 2935 2936 2938 2939 2940 2941 2943 2944 2946 2947 2949 2950
2940 2940 2939 2938 2937 2936 2936 2935 2934 2933 2932 2931 2930 2928 2928 2926 2925 2925 2924 2923 2922 2921 2920 2919 2919 2918 2918 2919 2920 2919 2918 2917 2915 2913 2914 2915 2915 2915 2916 2916 2916 2916 2917 2919 2920 2920 2920 2920 2920 2920 2919 2919 2919 2918 2918 2918 2918 2918 2919 2919 2920 2920 2921 2921 2922 2922 2923 2924 2924 2925 2926 2926 2927 2928 2929 2930 2931 2933 2934 2935 2937 2938 2940 2941 2943 2945
2935 2935 2934 2933 2932 2931 2930 2930 2929 2928 2927 2925 2924 2923 2922 2921 2920 2919 2918 2917 2916 2915 2914 2914 2913 2913 2913 2913 2913 2912 2911 2911 2909 2907 2908 2909 2910 2910 2910 2911 2911 2910 2911 2913 2913 2914 2914 2913 2913 2913 2913 2913 2913 2913 2913 2913 2913 2913 2913 2913 2914 2914 2915 2915 2916 2916 2917 2918 2918 2919 2920 2920 2921 2922 2923 2924 2925 2927 2928 2929 2931 2932 2934 2935 2937 2938
2930 2930 2929 2928 2926 2926 2925 2925 2924 2923 2921 2920 2918 2918 2917 2915 2915 2914 2913 2912 2911 2910 2909 2908 2908 2907 2907 2908 2907 2906 2905 2905 2903 2902 2901 2902 2903 2904 2905 2905 2905 2905 2905 2906 2907 2907 2907 2907 2907 2907 2908 2908 2908 2907 2907 2907 2907 2907 2907 2908 2908 2909 2909 2909 2910 2910 2911 2911 2912 2913 2914 2915 2915 2916 2917 2918 2919 2920 2922 2923 2925 2926 2928 2929 2931 2932
2925 2925 2924 2923 2922 2921 2920 2920 2919 2918 2916 2915 2913 2912 2911 2910 2909 2909 2908 2907 2906 2905 2904 2903 2902 2901 2901 2901 2901 2900 2899 2898 2898 2896 2894 2895 2896 2898 2899 2899 2899 2898 2898 2900 2901 2901 2901 2901 2901 2901 2902 2902 2902 2902 2902 2902 2901 2902 2902 2902 2902 2903 2903 2903 2904 2904 2905 2905 2906 2907 2908 2909 2909 2910 2911 2912 2913 2914 2915 2917 2919 2920 2921 2923 2925 2926
2920 2920 2919 2918 2918 2917 2915 2915 2914 2913 2911 2910 2909 2907 2906 2905 2904 2903 2902 2901 2901 2900 2898 2898 2897 2896 2895 2896 2896 2895 2894 2893 2892 2890 2887 2888 2890 2891 2892 2892 2892 2892 2891 2893 2894 2895 2895 2894 2894 2895 2896 2896 2896 2896 2896 2896 2896 2896 2896 2896 2896 2897 2897 2897 2898 2898 2899 2899 2900 2900 2901 2902 2903 2904 2905 2905 2907 2908 2909 2910 2912 2914 2915 2917 2919 2920
2917 2915 2915 2914 2913 2912 2911 2910 2909 2908 2906 2905 2904 2903 2901 2900 2899 2898 2896 2896 2895 2894 2893 2892 2891 2890 2890 2890 2890 2889 2888 2887 2885 2884 2882 2882 2883 2884 2885 2886 2886 2885 2885 2886 2887 2887 2887 2887 2888 2888 2889 2890 2890 2890 2890 2890 2890 2890 2890 2890 2891 2891 2891 2891 2892 2892 2892 2893 2894 2894 2895 2896 2897 2898 2898 2899 2900 2901 2903 2904 2906 2908 2909 2911 2913 2914
2913 2911 2910 2909 2908 2907 2906 2905 2903 2902 2901 2900 2899 2898 2896 2895 2894 2893 2891 2890 2890 2889 2887 2886 2885 2885 2884 2884 2884 2883 2882 2881 2880 2878 2877 2876 2875 2876 2877 2879 2879 2879 2878 2879 2880 2880 2880 2880 2880 2881 2882 2883 2883 2883 2883 2884 2884 2884 2885 2885 2885 2885 2885 2885 2885 2886 2886 2886 2887 2888 2889 2889 2890 2891 2892 2893 2894 2895 2896 2898 2899 2901 2903 2905 2906 2908
2909 2908 2906 2905 2904 2903 2901 2900 2899 2897 2896 2895 2895 2893 2891 2890 2888 2887 2886 2885 2885 2884 2882 2881 2880 2880 2878 2877 2877 2877 2876 2875 2874 2874 2872 2870 2868 2868 2870 2871 2871 2870 2870 2870 2871 2872 2873 2872 2873 2874 2875 2876 2876 2876 2876 2877 2877 2878 2878 2879 2879 2880 2880 2880 2880 2880 2880 2880 2880 2881 2882 2883 2883 2884 2885 2886 2887 2888 2890 2891 2893 2894 2896 2897 2899 2901
2905 2904 2902 2901 2900 2898 2897 2896 2895 2893 2892 2891 2890 2888 2886 2885 2884 2882 2881 2880 2880 2879 2878 2877 2876 2875 2873 2873 2873 2873 2871 2870 2870 2870 2869 2866 2863 2863 2864 2865 2865 2864 2863 2862 2863 2864 2865 2864 2865 2866 2868 2869 2870 2870 2870 2871 2871 2871 2872 2873 2873 2874 2874 2874 2874 2873 2873 2874 2874 2874 2875 2876 2876 2877 2878 2879 2880 2882 2883 2885 2886 2888 2889 2891 2892 2894
2901 2900 2898 2897 2895 2894 2893 2892 2891 2890 2889 2887 2886 2885 2883 2881 2880 2879 2878 2876 2875 2875 2875 2874 2872 2870 2869 2870 2870 2869 2868 2868 2868 2867 2865 2863 2861 2860 2860 2860 2860 2860 2859 2857 2856 2857 2858 2858 2857 2858 2860 2861 2862 2863 2865 2865 2866 2866 2866 2867 2867 2867 2867 2867 2867 2867 2867 2867 2867 2868 2868 2869 2870 2870 2871 2872 2874 2875 2877 2878 2880 2881 2883 2884 2885 2887
2898 2896 2895 2893 2892 2891 2890 2889 2888 2887 2886 2885 2883 2882 2880 2878 2877 2876 2874 2873 2873 2873 2872 2870 2868 2867 2867 2866 2866 2866 2866 2866 2866 2864 2862 2861 2860 2858 2856 2855 2857 2857 2856 2853 2851 2851 2853 2853 2853 2852 2853 2855 2856 2857 2858 2859 2860 2860 2861 2861 2861 2861 2861 2861 2861 2861 2861 2861 2861 2861 2862 2862 2863 2864 2865 2865 2867 2869 2870 2872 2874 2875 2876 2877 2879 2880
2895 2893 2892 2890 2889 2888 2887 2886 2885 2884 2883 2882 2881 2879 2877 2876 2875 2874 2871 2870 2870 2870 2869 2867 2865 2865 2865 2863 2862 2862 2863 2864 2862 2861 2860 2860 2858 2855 2852 2852 2854 2855 2852 2850 2848 2848 2849 2850 2849 2848 2849 2850 2850 2851 2852 2853 2854 2855 2855 2855 2855 2855 2855 2855 2855 2855 2855 2855 2855 2855 2855 2856 2856 2857 2858 2859 2860 2862 2864 2865 2867 2868 2869 2870 2871 2873
2892 2891 2890 2888 2887 2886 2885 2884 2882 2881 2881 2880 2878 2877 2875 2874 2873 2871 2870 2868 2868 2867 2865 2864 2863 2862 2862 2860 2859 2858 2859 2859 2859 2858 2857 2857 2854 2850 2848 2850 2852 2851 2849 2847 2846 2845 2844 2844 2845 2846 2847 2846 2846 2846 2847 2847 2848 2848 2849 2849 2849 2849 2849 2849 2849 2849 2849 2849 2849 2849 2850 2850 2850 2851 2852 2853 2854 2855 2857 2859 2860 2861 2862 2863 2865 2866
2889 2888 2887 2886 2885 2884 2883 2881 2880 2879 2878 2877 2876 2875 2873 2872 2871 2870 2868 2867 2866 2865 2863 2862 2860 2860 2859 2858 2857 2855 2854 2854 2855 2855 2855 2854 2850 2847 2846 2848 2849 2848 2846 2845 2845 2842 2839 2838 2840 2843 2845 2843 2842 2842 2842 2843 2843 2843 2843 2843 2843 2843 2844 2844 2844 2844 2844 2844 2844 2844 2844 2845 2845 2845 2846 2847 2848 2849 2851 2852 2853 2854 2855 2856 2857 2859
2886 2885 2885 2884 2883 2881 2880 2879 2878 2877 2876 2875 2874 2872 2871 2870 2869 2867 2866 2865 2864 2863 2861 2860 2859 2857 2857 2856 2855 2853 2851 2850 2851 2851 2852 2851 2848 2845 2844 2846 2846 2845 2843 2843 2843 2842 2838 2835 2835 2838 2841 2840 2839 2838 2838 2839 2839 2839 2839 2838 2839 2839 2839 2839 2839 2839 2839 2839 2839 2840 2840 2840 2840 2841 2841 2842 2842 2843 2845 2845 2846 2847 2848 2849 2850 2852
2884 2883 2882 2881 2880 2879 2878 2876 2875 2874 2873 2872 2871 2870 2869 2868 2866 2865 2864 2863 2862 2861 2859 2858 2856 2855 2854 2853 2852 2850 2849 2849 2849 2849 2849 2849 2846 2843 2842 2843 2844 2842 2840 2840 2840 2840 2837 2834 2833 2834 2835 2836 2835 2835 2835 2835 2835 2835 2835 2835 2835 2835 2835 2835 2835 2835 2835 2835 2835 2835 2836 2836 2836 2836 2837 2837 2837 2838 2839 2839 2840 2840 2841 2842 2843 2845
2881 2880 2879 2878 2877 2876 2875 2874 2873 2872 2870 2870 2869 2867 2866 2865 2864 2863 2861 2860 2859 2858 2857 2855 2854 2853 2852 2850 2849 2848 2847 2847 2847 2847 2847 2845 2843 2840 2840 2840 2840 2839 2838 2836 2836 2835 2835 2833 2831 2831 2830 2831 2831 2831 2831 2831 2831 2831 2831 2831 2831 2830 2830 2831 2831 2831 2831 2830 2830 2831 2832 2832 2832 2832 2832 2832 2832 2833 2833 2833 2834 2834 2835 2835 2836 2837
2878 2878 2877 2875 2874 2873 2872 2871 2870 2869 2868 2867 2866 2865 2864 2862 2861 2860 2859 2858 2857 2856 2855 2854 2853 2851 2850 2848 2846 2845 2845 2845 2845 2845 2844 2842 2840 2838 2837 2837 2837 2836 2835 2834 2833 2832 2831 2830 2829 2829 2827 2826 2826 2827 2827 2828 2827 2827 2827 2827 2827 2827 2826 2827 2827 2827 2826 2826 2826 2827 2827 2827 2827 2827 2827 2828 2828 2828 2828 2828 2828 2829 2829 2830 2830 2831
2876 2875 2874 2873 2872 2870 2869 2869 2868 2867 2865 2865 2864 2863 2861 2860 2859 2858 2857 2856 2855 2854 2852 2851 2850 2849 2847 2846 2844 2843 2842 2843 2843 2843 2842 2840 2838 2836 2835 2834 2834 2834 2833 2831 2830 2829 2828 2827 2826 2825 2825 2823 2822 2822 2823 2824 2825 2824 2823 2823 2823 2823 2823 2823 2823 2823 2823 2822 2822 2822 2823 2823 2823 2823 2823 2823 2823 2823 2823 2823 2823 2824 2824 2825 2825 2826
2874 2873 2872 2871 2870 2868 2867 2866 2865 2864 2863 2862 2861 2860 2859 2858 2857 2855 2855 2854 2853 2851 2850 2849 2848 2847 2845 2844 2843 2842 2840 2840 2840 2840 2839 2838 2836 2835 2833 2831 2831 2831 2831 2829 2827 2826 2825 2824 2823 2822 2822 2821 2820 2819 2819 2820 2820 2820 2819 2819 2819 2820 2820 2820 2819 2819 2819 2819 2819 2819 2819 2819 2819 2819 2819 2819 2819 2819 2819 2819 2820 2820 2820 2821 2821 2822
2872 2871 2870 2869 2867 2866 2865 2864 2863 2862 2861 2860 2859 2858 2857 2855 2855 2853 2852 2851 2850 2850 2848 2847 2846 2845 2844 2843 2841 2840 2839 2838 2837 2837 2836 2835 2834 2833 2831 2829 2828 2828 2828 2827 2825 2824 2823 2821 2820 2819 2818 2818 2818 2817 2817 2816 2816 2816 2815 2815 2816 2816 2816 2815 2815 2815 2815 2815 2815 2815 2815 2816 2816 2816 2815 2815 2815 2815 2816 2816 2816 2816 2817 2817 2818 2819
2870 2869 2868 2867 2865 2864 2863 2862 2860 2860 2859 2857 2856 2855 2854 2853 2852 2851 2850 2849 2848 2847 2846 2845 2844 2843 2842 2841 2840 2839 2838 2836 2835 2835 2834 2833 2832 2830 2829 2827 2826 2825 2825 2825 2823 2821 2820 2819 2818 2816 2816 2815 2815 2814 2814 2814 2813 2812 2812 2812 2812 2812 2812 2812 2812 2812 2812 2811 2811 2811 2811 2812 2812 2812 2812 2812 2812 2812 2812 2812 2813 2813 2814 2815 2815 2815
2869 2867 2866 2865 2864 2862 2861 2860 2859 2857 2856 2855 2854 2853 2852 2851 2850 2849 2848 2847 2846 2845 2844 2843 2842 2841 2841 2840 2839 2838 2837 2835 2834 2833 2832 2831 2830 2828 2827 2825 2824 2823 2822 2822 2820 2819 2818 2817 2815 2814 2814 2813 2811 2811 2811 2811 2810 2810 2809 2808 2808 2808 2809 2809 2809 2808 2808 2808 2808 2808 2808 2808 2808 2808 2808 2808 2808 2809 2809 2809 2809 2810 2811 2811 2811 2811
2867 2866 2865 2863 2862 2861 2860 2858 2857 2855 2854 2853 2852 2851 2850 2849 2848 2847 2846 2845 2845 2843 2842 2841 2840 2839 2839 2838 2838 2836 2835 2834 2833 2832 2830 2829 2828 2826 2825 2824 2823 2821 2820 2819 2818 2817 2816 2815 2813 2812 2811 2810 2810 2808 2808 2807 2807 2807 2807 2805 2805 2805 2805 2806 2805 2805 2805 2805 2805 2805 2804 2804 2804 2804 2804 2805 2805 2805 2805 2805 2806 2806 2807 2807 2808 2808
2865 2864 2863 2862 2861 2860 2858 2857 2856 2854 2853 2852 2850 2849 2848 2847 2846 2845 2844 2843 2842 2841 2840 2839 2838 2837 2836 2836 2836 2835 2834 2832 2831 2830 2829 2828 2827 2825 2824 2822 2821 2820 2818 2817 2815 2814 2814 2813 2811 2810 2809 2809 2807 2806 2804 2804 2805 2805 2804 2803 2802 2802 2802 2802 2803 2803 2802 2802 2801 2801 2801 2801 2800 2800 2801 2801 2801 2801 2801 2802 2802 2802 2803 2803 2804 2804
2864 2863 2861 2860 2859 2858 2857 2856 2855 2853 2852 2851 2850 2848 2847 2845 2844 2843 2842 2841 2840 2839 2838 2837 2836 2835 2835 2834 2834 2833 2832 2831 2829 2828 2827 2825 2824 2823 2821 2820 2819 2818 2816 2815 2813 2812 2812 2811 2810 2808 2807 2806 2805 2804 2802 2801 2802 2802 2801 2801 2800 2800 2799 2799 2800 2800 2800 2799 2799 2799 2798 2798 2797 2797 2797 2797 2797 2797 2798 2798 2798 2798 2799 2799 2800 2800
2863 2861 2860 2859 2858 2857 2856 2855 2853 2852 2851 2850 2848 2847 2846 2844 2843 2841 2840 2839 2838 2837 2836 2835 2834 2833 2833 2832 2831 2831 2830 2829 2828 2826 2825 2823 2822 2820 2819 2818 2816 2815 2814 2813 2811 2810 2810 2809 2808 2807 2806 2805 2803 2802 2800 2800 2800 2799 2799 2799 2798 2797 2796 2796 2797 2797 2797 2796 2796 2796 2796 2795 2795 2794 2794 2794 2794 2794 2794 2794 2794 2794 2795 2795 2796 2796
2861 2860 2859 2858 2857 2855 2854 2853 2852 2851 2850 2848 2847 2845 2844 2843 2841 2840 2839 2838 2836 2835 2834 2833 2832 2831 2831 2830 2829 2829 2828 2827 2826 2825 2823 2822 2820 2819 2817 2816 2815 2814 2812 2811 2810 2808 2807 2806 2805 2805 2804 2802 2801 2800 2799 2798 2797 2797 2797 2796 2796 2795 2794 2794 2794 2794 2794 2794 2794 2794 2793 2793 2792 2791 2790 2790 2790 2790 2790 2790 2790 2791 2791 2792 2792 2792
2860 2859 2858 2856 2855 2854 2853 2851 2850 2849 2848 2847 2845 2844 2843 2841 2840 2839 2837 2836 2835 2834 2833 2832 2830 2830 2829 2828 2827 2826 2825 2825 2824 2823 2822 2821 2819 2818 2816 2815 2814 2812 2811 2810 2809 2807 2806 2804 2803 2802 2801 2800 2799 2798 2797 2796 2795 2795 2794 2794 2794 2792 2792 2791 2791 2791 2791 2791 2791 2791 2791 2790 2790 2788 2787 2787 2787 2787 2787 2787 2787 2787 2788 2788 2789 2789
2859 2857 2856 2855 2854 2852 2851 2850 2849 2847 2846 2845 2844 2843 2841 2840 2839 2837 2836 2835 2834 2832 2831 2830 2829 2828 2827 2826 2825 2824 2823 2823 2822 2821 2820 2819 2818 2817 2815 2814 2813 2811 2810 2809 2807 2806 2805 2803 2802 2800 2799 2798 2796 2795 2795 2795 2794 2793 2792 2791 2791 2790 2789 2789 2788 2788 2788 2788 2788 2788 2788 2787 2786 2785 2785 2785 2784 2784 2784 2784 2784 2785 2785 2785 2785 2785
2857 2856 2855 2853 2852 2851 2850 2848 2847 2846 2845 2844 2842 2841 2840 2839 2837 2836 2835 2834 2832 2831 2830 2829 2828 2827 2826 2825 2824 2822 2821 2820 2820 2820 2819 2817 2816 2815 2814 2813 2811 2810 2809 2807 2806 2805 2803 2802 2800 2799 2797 2796 2794 2793 2792 2792 2792 2790 2790 2789 2788 2787 2786 2786 2786 2786 2785 2785 2785 2785 2785 2784 2783 2783 2782 2782 2781 2781 2781 2781 2781 2782 2782 2782 2782 2783
2855 2854 2853 2851 2850 2849 2848 2846 2845 2844 2843 2842 2841 2840 2839 2838 2836 2835 2833 2832 2831 2830 2829 2827 2826 2825 2824 2824 2822 2821 2820 2819 2818 2818 2817 2815 2814 2813 2812 2811 2810 2808 2807 2805 2804 2802 2801 2800 2798 2797 2795 2794 2792 2790 2790 2789 2789 2788 2787 2786 2785 2785 2784 2783 2783 2783 2782 2782 2781 2781 2781 2781 2780 2780 2780 2779 2778 2778 2778 2779 2779 2779 2780 2780 2780 2780
2854 2853 2851 2850 2849 2847 2846 2845 2844 2842 2841 2840 2839 2838 2837 2836 2835 2834 2832 2831 2830 2828 2827 2826 2825 2824 2823 2822 2821 2820 2819 2818 2817 2816 2815 2814 2812 2811 2810 2809 2807 2805 2804 2803 2801 2800 2798 2797 2795 2795 2793 2792 2790 2789 2787 2787 2786 2785 2785 2784 2783 2782 2781 2780 2780 2779 2779 2778 2778 2778 2778 2777 2777 2777 2776 2776 2775 2775 2775 2776 2776 2776 2777 2778 2778 2778
2853 2851 2850 2848 2847 2846 2844 2843 2842 2841 2840 2838 2837 2836 2835 2835 2834 2832 2831 2830 2828 2827 2826 2825 2824 2823 2821 2820 2820 2819 2817 2816 2815 2814 2813 2811 2810 2809 2807 2806 2804 2803 2801 2800 2798 2796 2795 2793 2792 2791 2790 2790 2789 2787 2785 2784 2784 2783 2782 2781 2780 2780 2779 2777 2777 2776 2776 2775 2775 2775 2775 2774 2774 2774 2774 2773 2773 2772 2772 2773 2773 2774 2775 2775 2775 2775